EW1159 Weather Reports


time (UTC)temp
F
wind
direction
speed
knots
gust
knots
rain 1hr
in
rain 24hr
in
rain mn
in
humidity
%
barometer
mb
20260503051502 56 278 6.1 11.3 0.00 0.00 0.00 31 985.4
20260503050002 56 290 5.2 11.3 0.00 0.00 0.00 31 985.3
20260503044501 57 280 4.3 9.6 0.00 0.00 0.00 31 985.2
20260503043000 57 252 5.2 10.4 0.00 0.00 0.00 30 985.2
20260503041613 58 278 4.3 10.4 0.00 0.00 0.00 30 985.0
20260503040059 58 249 3.5 8.7 0.00 0.00 0.00 30 985.0
20260503034559 59 281 3.5 9.6 0.00 0.00 0.00 30 984.8
20260503033116 59 283 4.3 9.6 0.00 0.00 0.00 30 984.8
20260503031558 60 262 2.6 7.0 0.00 0.00 0.00 29 984.6
20260503030106 61 281 0.0 4.3 0.00 0.00 0.00 28 984.5
20260503024602 62 265 3.5 7.8 0.00 0.00 0.00 26 984.4
20260503023057 63 273 5.2 9.6 0.00 0.00 0.00 25 984.4
20260503021601 65 227 0.9 8.7 0.00 0.00 0.00 25 984.5
20260503020101 64 249 6.1 11.3 0.00 0.00 0.00 24 984.4
20260503014553 65 197 2.6 7.8 0.00 0.00 0.00 30 984.6
20260503013050 65 208 6.1 9.6 0.00 0.00 0.00 31 984.8
20260503011601 66 249 2.6 7.8 0.00 0.00 0.00 28 984.8
20260503010048 66 194 0.9 5.2 0.00 0.00 0.00 30 985.0
20260503004547 66 170 0.0 7.0 0.00 0.00 0.00 29 985.1
20260503003043 66 212 2.6 8.7 0.00 0.00 0.00 30 985.3
20260503001544 66 210 0.0 5.2 0.00 0.00 0.00 30 985.5
20260503000038 65 160 2.6 7.8 0.00 0.00 0.00 33 985.5
20260502234545 65 170 4.3 10.4 0.00 0.00 0.00 34 985.7
20260502233034 64 122 6.1 9.6 0.00 0.00 0.00 36 985.9
20260502231535 64 150 2.6 12.2 0.00 0.00 0.00 36 986.2
20260502230030 65 123 0.9 7.8 0.00 0.00 0.00 37 986.3
20260502224530 64 39 0.9 10.4 0.00 0.00 0.00 36 986.4
20260502223026 65 170 5.2 9.6 0.00 0.00 0.00 36 986.7
20260502221524 64 147 5.2 12.2 0.00 0.00 0.00 37 986.9
20260502220027 63 219 4.3 12.2 0.00 0.00 0.00 36 987.2
20260502214517 62 141 4.3 10.4 0.00 0.00 0.00 38 987.4
20260502213026 62 177 6.1 12.2 0.00 0.00 0.00 40 987.6
20260502211514 62 135 2.6 10.4 0.00 0.00 0.00 41 987.7
20260502210011 62 162 7.0 14.8 0.00 0.00 0.00 41 988.0
20260502204509 61 137 4.3 9.6 0.00 0.00 0.00 40 988.2
20260502203006 60 122 2.6 8.7 0.00 0.00 0.00 42 988.4
20260502201505 60 125 4.3 9.6 0.00 0.00 0.00 43 988.7
20260502200003 60 112 4.3 8.7 0.00 0.00 0.00 42 988.8
20260502194603 59 135 4.3 7.8 0.00 0.00 0.00 43 989.1
20260502193057 58 153 2.6 9.6 0.00 0.00 0.00 46 989.3
20260502191610 57 136 0.9 12.2 0.00 0.00 0.00 46 989.5
20260502190105 58 74 3.5 10.4 0.00 0.00 0.00 47 989.6
20260502184550 56 200 7.8 14.8 0.00 0.00 0.00 47 989.8
20260502183057 57 132 5.2 9.6 0.00 0.00 0.00 48 990.0
20260502181546 56 108 3.5 9.6 0.00 0.00 0.00 47 990.2
20260502163049 53 129 0.0 7.0 0.00 0.00 0.00 53 991.2
20260502161525 51 132 0.9 6.1 0.00 0.00 0.00 55 991.4
20260502151519 49 129 0.0 0.0 0.00 0.00 0.00 58 991.6
20260502130109 45 317 0.0 0.0 0.00 0.00 0.00 69 991.3
20260502123105 45 336 0.0 4.3 0.00 0.00 0.00 69 991.2
20260502121559 45 354 0.9 4.3 0.00 0.00 0.00 68 991.2
20260502114553 46 337 0.0 4.3 0.00 0.00 0.00 66 991.1
20260502113053 46 353 0.9 6.1 0.00 0.00 0.00 66 991.1
20260502111550 47 345 0.0 6.1 0.00 0.00 0.00 64 991.0
20260502110048 46 337 0.0 5.2 0.00 0.00 0.00 66 991.2
20260502104546 47 315 3.5 7.8 0.00 0.00 0.00 65 991.1
20260502103045 47 313 3.5 7.8 0.00 0.00 0.00 65 991.0
20260502101543 47 335 2.6 7.8 0.00 0.00 0.00 64 991.0
20260502091533 49 301 4.3 7.8 0.00 0.00 0.00 63 990.8
20260502071521 48 281 2.6 5.2 0.00 0.00 0.00 65 990.5
20260502070017 48 283 0.0 1.7 0.00 0.00 0.00 66 990.5
20260502064532 48 287 0.9 5.2 0.00 0.00 0.00 66 990.4
20260502063015 48 281 0.0 0.9 0.00 0.00 0.00 66 990.4
20260502061513 48 291 0.0 0.0 0.00 0.00 0.00 66 990.3
20260502060014 48 281 0.0 0.0 0.00 0.00 0.00 66 990.2
20260502054511 48 254 0.0 0.9 0.00 0.00 0.00 66 990.2
20260502053009 49 262 0.0 4.3 0.00 0.00 0.00 66 990.0